www.pogodaiklimat.ru
ПОГОДА в Патуксент Ривер
Время
и дата
10:52 19.05
11:52 19.05
12:52 19.05
13:52 19.05
14:52 19.05
15:52 19.05
16:52 19.05
17:52 19.05
18:52 19.05
19:52 19.05
20:52 19.05
21:19 19.05
21:52 19.05
22:52 19.05
23:52 19.05
00:52 20.05
01:43 20.05
01:52 20.05
02:52 20.05
03:52 20.05
04:52 20.05
05:43 20.05
05:52 20.05
06:02 20.05
06:52 20.05
06:59 20.05
07:52 20.05
08:52 20.05
09:52 20.05
10:52 20.05
11:52 20.05
12:52 20.05
13:52 20.05
14:52 20.05
15:52 20.05
16:52 20.05
17:52 20.05
18:52 20.05
19:52 20.05
20:52 20.05
21:52 20.05
22:52 20.05
23:52 20.05
00:21 21.05
00:30 21.05
00:52 21.05
01:03 21.05
01:14 21.05
Ветер
(напр.,м/с)
Видим. Явления Облачность Т
(С)
Тd
(С)
f
(%)
Тe
(С)
Тes
(С)
Комфортность P
(гПа)
Po
(гПа)
Тmin
(С)
Tmax
(С)
R
(мм)
R24
(мм)
S
(см)
С 4 16 км 10/10 1050 м +22.8 +16.1 66 +27 +27 душно 1016.2 1014.7
С 3 16 км 8/8 900 м +22.2 +15.6 66 +26 +29 душно 1015.9 1014.4
С 4 16 км 10/10 1230 м +22.8 +15.0 61 +27 +27 душно 1015.4 1014.0 +17.8 +22.8
С 3 16 км 10/10 1290 м +22.8 +15.6 64 +27 +27 душно 1015.2 1013.7
СЗ 4 16 км 10/10 1500 м +22.8 +15.6 64 +27 +27 душно 1014.7 1013.0
СЗ 3 16 км 8/8 1650 м +23.9 +15.6 60 +27 +29 жарко 1014.8 1013.3
С 3 16 км 8/8 1800 м +22.8 +15.0 61 +27 +28 душно 1014.5 1013.0
С 3 16 км 10/10 1800 м +23.3 +15.0 60 +27 +27 душно 1014.6 1013.0
СВ 2 16 км 10/10 1800 м +22.2 +15.6 66 +26 +26 душно 1014.7 1013.0 +22.2 +23.9
С 2 16 км ясно +20.6 +15.6 73 +24 +24 комфорт 1015.4 1014.0
В 2 16 км 8/8 840 м +18.9 +15.6 81 +21 +21 комфорт 1016.2 1014.7
ЮВ 6 16 км 5/5 900 м +18.9 +15.6 81 +20 +20 1014.7
ЮВ 4
{9}
16 км ясно +18.9 +15.0 78 +20 +20 1016.6 1015.0
ЮВ 2 16 км ясно +17.8 +14.4 80 +18 +18 1016.7 1015.4
ЮВ 3 16 км 5/5 450 м +18.3 +13.9 76 +19 +19 1016.6 1015.0
ЮВ 3 16 км ясно +17.2 +13.9 81 +17 +17 1016.5 1015.0 +17.2 +22.2
ЮВ 3 16 км 8/8 690 м +16.7 +13.9 84 +16 +16 1015.0
В 3 16 км 8/8 660 м +16.7 +13.3 80 +16 +16 1016.2 1014.7
В 4 16 км 10/10 630 м +16.7 +13.3 80 +16 +16 1016.0 1014.4
В 3 16 км 10/10 300 м +16.7 +13.3 80 +16 +16 1016.1 1014.7
штиль 0 16 км 10/10 660 м +16.1 +12.8 81 +16 +16 1016.4 1014.7
В 3 16 км 10/10 300 м +16.7 +13.3 80 +16 +16 1015.4
В 3 16 км 10/10 300 м +16.7 +12.8 78 +16 +16 1016.8 1015.4
В 3 16 км 10/10 300 м +16.7 +12.8 78 +16 +16 1015.4
В 3 16 км 10/10 330 м +16.7 +12.8 78 +16 +16 1018.1 1016.7 +16.1 +17.8
СВ 3 16 км 10/10 300 м +16.7 +12.8 78 +16 +16 1016.7
СВ 2 16 км 10/10 300 м +17.2 +12.8 75 +18 +18 1019.0 1017.4
СВ 2 16 км 10/10 810 м +18.3 +13.3 73 +19 +19 1018.8 1017.4
В 2 16 км 8/8 450 м +18.9 +13.9 73 +20 +23 1018.4 1017.1
нст 2 16 км 8/8 690 м +21.7 +14.4 63 +25 +28 комфорт 1018.3 1016.7
СВ 3 16 км 8/8 690 м +21.7 +15.0 66 +25 +28 комфорт 1018.0 1016.4
В 3 16 км 8/8 660 м +22.8 +15.6 64 +27 +30 душно 1017.4 1016.0 +16.7 +22.8
С 2 16 км 8/8 660 м +23.3 +15.6 62 +28 +32 душно 1017.4 1015.7
СВ 3 16 км 5/5 750 м +23.9 +15.6 60 +27 +34 жарко 1016.9 1015.4
С 4 16 км 5/2 1500 m
[Ac]
+23.9 +16.1 62 +27 +32 жарко 1016.7 1015.0
СВ 3 16 км 5/2 1350 m
[Ci]
+23.9 +15.6 60 +27 +32 жарко 1016.1 1014.7
штиль 0 16 км 5/0 6900 m
[Ci]
+23.9 +15.0 57 +27 +32 жарко 1015.8 1014.4
штиль 0 16 км 5/0 7200 m
[Ci]
+23.3 +15.0 60 +27 +29 душно 1016.0 1014.4 +22.2 +24.4
ЮЗ 2 16 км 5/0 6300 m
[Ci]
+20.6 +16.1 75 +24 +24 комфорт 1016.2 1014.7
ЮЗ 2 16 км ясно +18.9 +16.1 84 +21 +21 комфорт 1016.7 1015.0
ЮВ 3 16 км ясно +20.0 +16.7 81 +23 +23 комфорт 1016.9 1015.4
Ю 2 16 км ясно +18.3 +16.1 87 +19 +19 1016.6 1015.0
ЮВ 2 16 км ясно +18.3 +15.6 84 +19 +19 1016.3 1014.7
ЮВ 2 14 км 5/5 90 м +17.8 +15.6 87 +18 +18 1014.7
ЮВ 3 11 км 8/8 60 м +17.8 +16.1 90 +18 +18 1014.7
Ю 2 5 км дымка 10/10 60 м +17.8 +16.1 90 +18 +18 1016.3 1014.7 +17.8 +23.3
Ю 2 3 км дымка 10/10 60 м +17.8 +16.1 90 +18 +18 1014.7
Ю 2 5 км дымка 10/10 60 м +17.8 +16.1 90 +18 +18 1014.7
Местоположение метеостанции Naval Air Station: широта 38.2786 долгота -76.4139 высота над уровнем моря 12 м.
В архиве по умолчанию представлена погода в Патуксент Ривер за последние 1-2 суток. Обновление информации о фактической погоде в базе происходит ежечасно! Архивные данные за месяц целиком и за предыдущие месяцы Вы можете получить, выбрав интересующий диапазон дат из раскрывающегося списка и нажав кнопку "Ввод!".
Внимание! Архив погоды МЕТАР в базе сайта по станциям, не включенным в климатический монитор, хранится не более 60 дней. Нет смысла пытаться выбрать более раннюю дату.
*Определитесь, кто Вы:
Внимание! Время в таблицах - местное (без учета летнего времени). Для получения всемирного времени необходимо вычесть поправку, которая равна -5 ч.
Смотрите также архив погоды в соседних городах и на ближайших метеорологических станциях:
Партнеры нашего сайта:      
Пояснения к столбцам:
  • Ветер - указаны скорость ветра в м/с - средняя за 10 мин, порывы в срок и между сроками (в фигурных скобках) и направление, откуда дует ветер: С - северный,
  • СВ - северо-восточный, В - восточный, ЮВ - юго-восточный, Ю - южный, ЮЗ - юго-западный, З - западный, СЗ - северо-западный.
  • Видимость - горизонтальная дальность видимости в метрах или километрах. При видимости от 1 до 10 км при отсутствии осадков обычно наблюдается дымка, при ухудшении видимости до 1 км и менее - туман. В сухую погоду видимость может ухудшаться дымом, пылью или мглою.
  • Явления - указаны атмосферные явления, наблюдавшиеся в срок или в последний час перед сроком; фигурными скобками обозначены явления, наблюдавшиеся между сроками (за 1-3 часа до срока); квадратными скобками обозначены град или гололедные отложения с указанием их диаметра в мм.
  • Облачность - указаны через наклонную черту общая и нижняя облачность в баллах и высота нижней границы облаков в метрах; квадратными скобками обозначены формы облаков: Ci - перистые, Cs - перисто-слоистые, Cc - перисто-кучевые, Ac - высококучевые, As - высокослоистые, Sc - слоисто-кучевые, Ns - слоисто-дождевые, Cu - кучевые, Cb - кучево-дождевые. Подробнее классификацию облаков см. в Атласе облаков (PDF).
  • T - Температура воздуха - температура, измеренная на высоте 2 м над землей.
  • Td - Температура точки росы - температура, при понижении до которой содержащийся в воздухе водяной пар достигнет насыщения.
  • f - Относительная влажность воздуха - влажноcть воздуха, измеренная на высоте 2 м над землей.
  • Te - Эффективная температура - температура, которую ощущает одетый по сезону человек в тени. Характеристика душности погоды. При расчете учитывается влияние влажности воздуха и скорости ветра на теплоощущения человека.
  • Tes - Эффективная температура на солнце - температура, которую ощущает человек, с поправкой на солнечный нагрев. Характеристика знойности погоды. Зависит от высоты солнца над горизонтом, облачности и скорости ветра. Ночью, в пасмурную погоду, а также при ветре 12 м/с и более поправка равна нулю.
  • P - Атмосферное давление - приведенное к уровню моря атмосферное давление.
  • Po - Атмосферное давление - измеренное на уровне метеостанции атмосферное давление.
  • Tmin - Минимальная температура - минимум температуры воздуха на высоте 2 м над землей.
  • Tmax - Максимальная температура - максимум температуры воздуха на высоте 2 м над землей.
  • R - Количество осадков - Количество выпавших осадков за период времени, мм. При наведении курсора мыши на число - период времени, за который выпало указанное количество осадков.
  • R24 - Количество осадков - Количество выпавших осадков за 24 часа, мм.
  • S - Снежный покров - Высота снежного покрова, см. При наведении курсора мыши на число - состояние снежного покрова и степень покрытия местности в баллах.